Regional Weather Roundup
Issued by NWS

Home | Current Version | Previous Version | Text Only | Print | Product List | Glossary On
Versions: 1 2 3 4 5 6 7 8 9 10 11 12 13 14 15 16 17 18 19 20 21 22 23 24 25 26 27 28 29 30 31 32 33 34 35 36 37 38 39 40 41 42 43 44 45 46 47 48 49 50
000
ASUS43 KMPX 281601
RWRMN
WEATHER ROUNDUP FOR MINNESOTA
NATIONAL WEATHER SERVICE TWIN CITIES/CHANHASSEN MN
1000 AM CST TUE FEB 28 2017


NOTE: "FAIR" INDICATES FEW OR NO CLOUDS BELOW 12,000 FEET WITH NO
SIGNIFICANT WEATHER AND/OR OBSTRUCTIONS TO VISIBILITY. N/A MEANS
CURRENT SKY AND/OR WEATHER CONDITIONS ARE NOT AVAILABLE.

MNZ060>063-068>070-281700-
   Twin Cities Metro

CITY           SKY/WX    TMP DP  RH WIND       PRES   REMARKS
TWIN CITIES    CLOUDY    44  32  62 E10       29.69F
ST PAUL        CLOUDY    43  33  68 NE8       29.72F
CRYSTAL        CLOUDY    40  28  62 NE9       29.69F
BLAINE         CLOUDY    39  30  70 NE7       29.71F
LAKEVILLE      CLOUDY    39  34  81 NE7       29.69F
EDEN PRAIRIE   MOSUNNY   45  32  60 NE8       29.67F
SOUTH ST PAUL  CLOUDY    43  32  66 NE3       29.70F
LAKE ELMO      CLOUDY    41  32  70 E8        29.71F
$$
MNZ001>005-007-008-013>017-022>024-027-028-281700-
   Northwest Minnesota

CITY           SKY/WX    TMP DP  RH WIND       PRES   REMARKS
BEMIDJI        MOSUNNY   26  19  75 NE9       29.84S WCI  17
HALLOCK        SUNNY     12   3  67 NE8       29.96S WCI   1
ROSEAU         SUNNY     12   7  79 NE15      29.94F WCI  -4
WARROAD        SUNNY     10   5  79 NE12      29.95S WCI  -4
THIEF RVR FALL SUNNY     16  11  80 NE13      29.91R WCI   2
CROOKSTON      SUNNY     19  12  73 NE7       29.93R WCI  10
FOSSTON        CLOUDY    21  19  93 NE10      29.87R WCI  10
DETROIT LAKES  SUNNY     27  21  80 NE9       29.83S WCI  17
MOORHEAD       MOSUNNY   23  19  86 N13       29.87F WCI  11
PARK RAPIDS    CLOUDY    26  18  71 NE12      29.80S WCI  16
MAHNOMEN       FAIR      26  20  79 NE12      29.85S WCI  15
$$
MNZ006-009>011-018-025>026-281700-
   North Central Minnesota

CITY           SKY/WX    TMP DP  RH WIND       PRES   REMARKS
BAUDETTE       SUNNY     18  10  71 NE9       29.91S WCI   7
FLAG ISLAND    SUNNY     10   3  72 N10       29.96S WCI  -3
INTL FALLS     CLOUDY    19  13  77 NE8       29.91R WCI   9
WASKISH        MOSUNNY   25  18  74 NE10G16   29.87S WCI  15
BIG FORK       CLOUDY    27  19  74 NE8       29.85S WCI  18
LONGVILLE      CLOUDY    27  23  86 N6        29.81F WCI  20
GRAND RAPIDS   CLOUDY    27  23  85 N9        29.84R WCI  18
CRANE LAKE     CLOUDY    21  18  86 NE3       29.91S
ORR            CLOUDY    25  16  68 CALM      29.84S
COOK           CLOUDY    25  19  80 NE6       29.86R WCI  18
WALKER         CLOUDY    24  20  85 NE9       29.83S WCI  14
$$
MNZ012-019>021-037-281700-
   Northeast Minnesota

CITY           SKY/WX    TMP DP  RH WIND       PRES   REMARKS
DULUTH         LGT SNOW  32  29  88 E9        29.78F VSB 3/4 WCI  24
ELY            CLOUDY    23  19  86 NE6       29.84R WCI  16
HIBBING        CLOUDY    25  22  88 NE9       29.82R WCI  15
EVELETH        CLOUDY    27  22  83 NE10      29.83R WCI  17
DULUTH HARBOR  MIX PCPN  34  30  86 NE12      29.82F WCI  25
TWO HARBORS    LGT SNOW  34  28  80 NE7       29.79S WCI  28
SILVER BAY     LGT RAIN  32  30  93 NE5       29.80S WCI  27
GRAND MARAIS     N/A     32  25  75 VRB7      29.85F WCI  26
G MARAIS ARPRT CLOUDY    25  19  80 N9        29.80F WCI  15
$$
MNZ029>031-032-039>041-046>048-054>057-064-281700-
   West Central Minnesota

CITY           SKY/WX    TMP DP  RH WIND       PRES   REMARKS
FERGUS FALLS   SUNNY     27  19  74 NE8       29.85S WCI  18
WHEATON        MOSUNNY   27  21  80 N14       29.82F WCI  15
MORRIS         FLURRIES  30  28  93 N13       29.76S WCI  20
ALEXANDRIA     CLOUDY    31  27  85 NE8       29.77S FOG     WCI  23
ELBOW LAKE     CLOUDY    27  21  77 NE10      29.79S WCI  18
WADENA         CLOUDY    27  19  74 NE7       29.79S WCI  19
GLENWOOD       LGT SNOW  32  30  93 N9        29.75F WCI  24
APPLETON       CLOUDY    30  27  86 N12       29.77S WCI  21
BENSON         LGT SNOW  36  30  80 NE5       29.77S
ORTONVILLE     CLOUDY    27  21  80 N15       29.78S WCI  15
MADISON        CLOUDY    30  28  93 N15       29.77S WCI  19
WILLMAR        FAIR      37  34  87 NE10      29.74S
$$
MNZ033>034-036-042>043-049>051-058-059-281700-
   Central Minnesota

CITY           SKY/WX    TMP DP  RH WIND       PRES   REMARKS
ST CLOUD       CLOUDY    36  32  85 NE8       29.75R
SAUK CENTRE    LGT SNOW  32  31  96 N7        29.76S WCI  26
PAYNESVILLE    CLOUDY    34  34 100 N10       29.74S FOG     WCI  26
AITKIN         CLOUDY    34  28  80 N8        29.76F WCI  27
PINE RIVER     CLOUDY    27  23  86 N8        29.84R WCI  18
BRAINERD       CLOUDY    32  29  88 NE9       29.78S FOG     WCI  24
STAPLES        PTSUNNY   28  21  74 N8        29.79R WCI  20
LONG PRAIRIE   SNOW      30  30 100 NW6       29.77R VSB 1/2 WCI  24
LITTLE FALLS   LGT SNOW  32  30  93 CALM      29.77R VSB 3/4
LITCHFIELD     CLOUDY    39  34  81 NE9       29.72F
BUFFALO        CLOUDY    38  31  77 N10       29.73R
MAPLE LAKE     CLOUDY    39  33  78 NE13      29.73S
HUTCHINSON     SUNNY     39  32  75 N12       29.72R
$$
MNZ037-044-045-052-053-281700-
   East Central Minnesota

CITY           SKY/WX    TMP DP  RH WIND       PRES   REMARKS
PRINCETON      CLOUDY    37  30  75 N10       29.74S
MORA           FLURRIES  32  30  93 NE3       29.77F
CAMBRIDGE      CLOUDY    37  28  70 NE6       29.73S
RUSH CITY      CLOUDY    34  30  85 N8        29.75S WCI  27
MOOSE LAKE     LGT SNOW  32  30  93 NE3       29.76F
HINCKLEY       FLURRIES  32  32 100 NE3       29.76F
CLOQUET        LGT SNOW  30  28  93 NE7       29.78F WCI  23
MCGREGOR       CLOUDY    32  30  93 NE6       29.78F WCI  26
$$
MNZ071>073-080-081-089-090-097-098-281700-
   Southwest Minnesota

CITY           SKY/WX    TMP DP  RH WIND       PRES   REMARKS
MONTEVIDEO     LGT SNOW  30  30 100 N8        29.76F WCI  23
GRANITE FALLS  PTSUNNY   37  34  87 NW10      29.76R
CANBY          CLOUDY    28  26  93 NW8       29.77F WCI  19
MARSHALL       CLOUDY    31  29  92 N15       29.74R WCI  20
REDWOOD FALLS  CLOUDY    40  30  67 VRB6      29.72R
OLIVIA         CLOUDY    37  34  87 NE10      29.71S
PIPESTONE      CLOUDY    36  28  75 NE15G25   29.67F
WINDOM         PTSUNNY   34  32  93 NW15      29.69R FOG     WCI  24
WORTHINGTON    CLOUDY    33  31  92 N16       29.68R FOG     WCI  23
JACKSON        MOSUNNY   34  32  93 NE6       29.66R WCI  29
TRACY          CLOUDY    34  33  97 N14       29.71F FOG     WCI  24
SLAYTON        CLOUDY    31  30  96 N17G23    29.69F FOG     WCI  20
$$
MNZ065>067-074>077-082>085-091>093-281700-
   South Central Minnesota

CITY           SKY/WX    TMP DP  RH WIND       PRES   REMARKS
MANKATO          N/A     40  34  79 E12       29.67F
NEW ULM        MOSUNNY   43  34  70 N6        29.69R
ST JAMES       MOSUNNY   37  34  87 CALM      29.67S
FAIRMONT       CLOUDY    38  32  79 NE9       29.66F
GLENCOE        MOSUNNY   41  35  77 NE7       29.70R
FARIBAULT      CLOUDY    39  34  81 N5        29.68F
OWATONNA       MOSUNNY   39  34  81 NE8       29.68F
WASECA         CLOUDY    36  32  87 NE7       29.68F
ALBERT LEA     PTSUNNY   37  36  93 N9        29.66F
$$
MNZ078>079-086>088-094>096-281700-
   Southeast Minnesota

CITY           SKY/WX    TMP DP  RH WIND       PRES   REMARKS
ROCHESTER      CLOUDY    40  37  89 CALM      29.67S FOG
RED WING       CLOUDY    41  30  65 NE5       29.70F
STANTON        CLOUDY    38  33  80 NE7       29.67F
WINONA         CLOUDY    41  36  81 CALM      29.70S
AUSTIN         CLOUDY    39  36  87 N6        29.65F
PRESTON        FOG       37  36  96 NE3       29.66F VSB 1/4
$$
ABBREVIATIONS USED IN REMARKS
   TC - TEMPERATURES IN CELSIUS
  WCI - WIND CHILL INDEX
   HX - HEAT INDEX
  VSB - VISIBILITY
$$




USA.gov is the U.S. government's official web portal to all federal, state and local government web resources and services.